Location: Dompnac
(44.5644°N, 4.1026°E)
Time: 11:20:48
(UTC+00:00)

Cosmos 1891 Rocket - Pass Details

Date: 21 January 2021
Orbit: 934 x 1018 km, 82.9° (Epoch: 24 February)

Event Time Altitude Azimuth Distance (km) Brightness Sun altitude
Rises 03:15:05 0° 135° (SE) 3,663 7.8 -42.0°
Reaches altitude 10° 03:18:41 10° 114° (ESE) 2,703 7.3 -41.3°
Maximum altitude 03:22:06 16° 80° (E) 2,312 7.0 -40.8°
Drops below altitude 10° 03:25:29 10° 46° (NE) 2,683 7.3 -40.2°
Sets 03:29:01 0° 25° (NNE) 3,621 7.9 -39.5°
